Weather at Berlin-Schönefeld Airport [CLOSED]

Public forecast

Using degrees Celsius for public forecast. Weather courtesy of forecast.io.

Current aviation weather report (METAR) for Berlin-Schönefeld Airport

Retrieved UTC (0 seconds ago):

Closest aviation forecast (TAF) to Berlin-Schönefeld Airport

Closest forecast is Berlin Brandenburg Airport, 2.0 nm (3.7 km) SSW. Retrieved 2022-05-23 00:27 UTC (1 hour ago):

TAF EDDB 222300Z 2300/2324 09004KT CAVOK BECMG 2305/2308 12012KT TEMPO 2311/2316 12015G25KT